Home > Weather > Cagliari > Past weeks

Flag for Italy Weather for the Past 2 Weeks in Cagliari, Italy

Now
63 °F

Sprinkles. Partly sunny.


Feels Like: 63 °F
Forecast: 53 / 56 °F
Wind: 5 mph from West

Location: Cagliari / Elmas

Current Time: Feb 14, 2016 at 6:04:47 PM

Latest Report: Feb 14, 2016 at 5:20 PM


Visibility: N/A

Pressure: 29.45 "Hg

Humidity: 77%

Dew point: 55 °F

Location of CagliariLocation

Historic Weather in Cagliari — Graph

°F

Cagliari Temperature Yesterday

Maximum temperature yesterday: 68 °F (at 1:20 PM)
Minimum temperature yesterday: 61 °F (at 12:20 AM)
Average temperature yesterday: 62 °F

High & Low Weather Summary for the Past Weeks

 TemperatureHumidityPressure
High68 °F (Feb 13, 1:20 PM)100% (Jan 31, 1:50 AM)30.42 "Hg (Jan 31, 1:50 AM)
Low37 °F (Feb 6, 6:20 AM)39% (Feb 10, 2:20 PM)29.42 "Hg (Feb 14, 4:20 PM)
Average56 °F78%30.08 "Hg
* Reported Jan 30 4:20 PM — Feb 14 4:50 PM, Cagliari, Weather by CustomWeather, © 2016

Note: Actual official high and low records may vary slightly from our data, if they occured in-between our weather recording intervals... More about our weather records

Advertising

Cagliari Weather History for the Previous 24 Hours

 ConditionsComfort  
Time TempWeatherWind HumidityBarometerVisibility
4:50 PM
Sun, Feb 14
63 °FScattered clouds.6 mph83%29.45 "HgN/A
4:20 PM63 °FScattered clouds.7 mph83%29.42 "HgN/A
3:50 PM64 °FPassing clouds.8 mph78%29.45 "HgN/A
3:20 PM63 °FScattered clouds.15 mph83%29.45 "HgN/A
2:50 PM64 °FScattered clouds.18 mph78%29.45 "HgN/A
2:20 PM64 °FScattered clouds.18 mph78%29.45 "HgN/A
1:50 PM64 °FScattered clouds.18 mph78%29.47 "HgN/A
1:20 PM63 °FScattered clouds.17 mph83%29.47 "HgN/A
12:50 PM63 °FLight rain. Partly sunny.18 mph88%29.50 "HgN/A
12:20 PM63 °FScattered clouds.18 mph88%29.50 "HgN/A
11:50 AM63 °FScattered clouds.15 mph83%29.50 "HgN/A
11:20 AM63 °FScattered clouds.17 mph83%29.50 "HgN/A
10:50 AM63 °FLight rain. Partly sunny.9 mph88%29.53 "HgN/A
10:20 AM61 °FLight rain. Partly sunny.15 mph88%29.53 "Hg5 mi
9:50 AM61 °FPartly sunny.12 mph88%29.53 "HgN/A
9:20 AM61 °FLight rain. Partly sunny.14 mph88%29.53 "HgN/A
8:20 AM63 °FPartly sunny.12 mph83%29.53 "HgN/A
7:50 AM63 °FScattered clouds.16 mph83%29.53 "HgN/A
7:20 AM63 °FLight rain. Partly sunny.13 mph83%29.53 "HgN/A
6:50 AM63 °FPassing clouds.13 mph83%29.53 "HgN/A
6:20 AM61 °FLight rain. Passing clouds.8 mph88%29.53 "HgN/A
5:50 AM61 °FPassing clouds.6 mph88%29.53 "HgN/A
5:20 AM61 °FLight rain. Passing clouds.13 mph88%29.56 "HgN/A
4:50 AM61 °FPassing clouds.10 mph88%29.56 "HgN/A
3:50 AM61 °FPassing clouds.1 mph88%29.59 "HgN/A
3:20 AM59 °FClear.1 mph94%29.59 "Hg10 mi
2:50 AM57 °FPassing clouds.5 mph94%29.62 "HgN/A
2:20 AM57 °FPassing clouds.3 mph94%29.59 "HgN/A
1:50 AM57 °FPassing clouds.2 mph94%29.62 "HgN/A
1:20 AM57 °FClear.1 mph94%29.65 "Hg10 mi
12:50 AM57 °FPassing clouds.3 mph94%29.65 "HgN/A
12:20 AM57 °FPassing clouds.3 mph88%29.68 "HgN/A
11:50 PM
Sat, Feb 13
61 °FClear.2 mph83%29.68 "Hg10 mi
11:20 PM61 °FPassing clouds.3 mph88%29.68 "HgN/A
10:50 PM61 °FPassing clouds.3 mph88%29.68 "HgN/A
10:20 PM61 °FPassing clouds.3 mph83%29.71 "HgN/A
9:50 PM61 °FClear.1 mph83%29.71 "Hg10 mi
9:20 PM61 °FPassing clouds.3 mph83%29.71 "HgN/A
8:50 PM61 °FClear.3 mph88%29.68 "Hg10 mi
8:20 PM63 °FPassing clouds.6 mph83%29.68 "HgN/A
7:50 PM63 °FPassing clouds.6 mph83%29.68 "HgN/A
7:20 PM63 °FPassing clouds.9 mph83%29.68 "HgN/A
6:50 PM63 °FPassing clouds.12 mph83%29.68 "HgN/A
6:20 PM63 °FPassing clouds.7 mph83%29.65 "HgN/A
Weather by CustomWeather, © 2016

See weather overviewHow to use our weather pages